[[{"header":{"parameterUnit":"m.s-1","parameterCategory":1,"la1":30.2991,"la2":30.254,"lo1":-89.0895,"lo2":-89.0444,"dy":0.0017,"dx":0.0017,"nx":28,"ny":28,"refTime":"2023-09-17T03:00:00:Z","depth":0,"parameterNumber":2,"parameterNumberName":"U-component_of_WINDS"},"data":[0,0,0,0,0,0,0,0,0,0,0,0,0,0,0,0,0,0,0,0,0,0,0,0,0,0,0,0,0,0,0,0,0,0,0,0,0,0,0,0,0,0,0,0,0,0,0,0,0,0,0,0,0,0,0,0,0,0,1.4488,1.4488,0,1.4499,1.4499,1.4499,1.4455,1.4454,1.4452,1.4451,1.4463,1.4464,1.4466,0,0,0,0,0,0,0,0,0,0,0,0,0,1.4431,1.4433,1.4488,1.4488,1.4488,1.4499,1.4499,1.4499,1.4455,1.4454,1.4452,1.4451,1.4462,1.4464,1.4466,0,0,0,0,0,0,0,0,0,0,0,0,0,1.445,1.4433,1.4488,1.4468,1.4466,1.4499,1.4499,1.4499,1.4455,1.4454,1.4452,1.445,1.4461,1.4464,1.4466,1.4519,0,0,1.4473,1.4474,0,0,0,0,0,0,0,0,1.4449,1.4453,1.447,1.4469,1.4467,1.4473,1.4483,1.4506,1.4456,1.4459,1.4451,1.4449,1.4468,1.4469,1.4476,1.452,1.452,1.4473,1.4474,1.4475,1.4476,0,0,0,0,0,0,0,1.4448,1.4452,1.4492,1.4471,1.4469,1.4459,1.4459,1.4487,1.4474,1.4459,1.4456,1.4458,1.4467,1.4474,1.4476,1.452,1.4473,1.4475,1.4476,1.4477,1.4612,1.4614,0,0,0,0,0,0,1.4449,1.4451,1.4492,1.4493,1.4453,1.4461,1.4462,1.4473,1.4474,1.4472,1.4459,1.4456,1.4471,1.4473,1.4476,1.4541,1.4475,1.4478,1.4479,1.461,1.4612,1.4615,0,0,0,0,0,0,1.4448,1.4453,1.4491,1.4471,1.4475,1.4464,1.4478,1.4475,1.4482,1.4474,1.4472,1.4469,1.4469,1.4473,1.4509,1.4541,1.4479,1.4481,1.4607,1.461,1.4613,1.467,0,0,0,0,0,0,1.4447,1.4453,1.4473,1.4472,1.4476,1.4524,1.4479,1.4476,1.4486,1.4481,1.4483,1.4481,1.4468,1.4506,1.4512,1.4543,1.4482,1.4604,1.4609,1.4612,1.4665,1.4674,1.4682,0,0,0,0,0,1.4445,1.4487,1.4474,1.4479,1.45,1.4526,1.4529,1.4513,1.4488,1.4509,1.4504,1.4481,1.4536,1.451,1.4516,1.4548,1.4602,1.4607,1.4612,1.4661,1.4672,1.4682,0,0,0,0,0,0,1.4492,1.4487,1.4472,1.4515,1.4522,1.4519,1.4543,1.4525,1.4539,1.4534,1.4513,1.4514,1.4555,1.4555,1.4526,1.4601,1.4565,1.4571,1.46,1.4611,1.462,1.462,1.4484,0,0,0,0,0,1.4507,1.4528,1.4522,1.4561,1.4565,1.4554,1.4565,1.4552,1.4558,1.456,1.4558,1.4565,1.4584,1.4597,1.4614,1.4664,1.4666,1.4689,1.4698,1.4705,1.4712,1.4741,1.4753,1.4631,1.4631,1.4631,0,0,1.4539,1.4539,1.4553,1.4571,1.4574,1.4598,1.4556,1.4582,1.46,1.4564,1.46,1.4599,1.4605,1.465,1.4669,1.4651,1.4746,1.4712,1.4717,1.472,1.4748,1.4759,1.477,1.4634,1.4634,1.4633,0,0,1.461,1.461,1.4644,1.4649,1.4655,1.4648,1.4656,1.4657,1.4655,1.469,1.4665,1.4686,1.4718,1.4725,1.4733,1.4809,1.4789,1.4814,1.4861,1.489,1.49,1.4908,1.4939,1.4949,1.482,1.4821,1.4821,0,1.4649,1.4682,1.4664,1.4693,1.4702,1.4672,1.4707,1.4712,1.4724,1.4732,1.4711,1.4753,1.4755,1.4802,1.4821,1.4827,1.4838,1.4815,1.49,1.4908,1.4916,1.4944,1.4955,1.4824,1.4823,1.4823,1.4823,0,1.4732,1.4756,1.4782,1.4795,1.4808,1.4839,1.4827,1.4842,1.4829,1.4824,1.4862,1.4863,1.4882,1.4891,1.4878,1.4938,1.4927,1.4903,1.4867,1.4931,1.4958,1.4968,1.4829,1.4827,1.4826,1.4826,0,0,1.4832,1.4836,1.4846,1.4853,1.4859,1.4877,1.4908,1.4927,1.4941,1.495,1.4978,1.5007,1.4986,1.4995,1.4982,1.5008,1.5072,1.4981,1.4981,1.5001,1.5141,1.5161,1.5174,1.5058,1.506,1.5061,1.5142,0,1.4903,1.4957,1.4943,1.4997,1.502,1.4993,1.502,1.5027,1.5024,1.5044,1.504,1.5063,1.5032,1.5038,1.5061,1.5059,1.51,1.5053,1.5085,1.5087,1.5087,1.5187,1.5207,1.5283,1.5152,1.5153,1.5155,0,1.4994,1.5009,1.5065,1.507,1.5079,1.5104,1.5121,1.514,1.5149,1.5145,1.5156,1.5139,1.5171,1.5134,1.5179,1.5148,1.516,1.5161,1.5164,1.5168,1.5126,1.5197,1.5306,1.5319,1.517,1.5169,1.5168,0,1.5066,1.5099,1.5138,1.5144,1.5149,1.5168,1.5171,1.5178,1.5191,1.5205,1.5214,1.5232,1.5243,1.5258,1.5248,1.522,1.5296,1.5257,1.5296,1.5297,1.5315,1.5314,1.5431,1.5319,1.5318,1.5318,1.5318,0,1.5149,1.5185,1.517,1.5195,1.5236,1.5219,1.526,1.526,1.5267,1.5292,1.5268,1.5292,1.5275,1.5298,1.5289,1.5331,1.5334,1.5334,1.5332,1.5338,1.5338,1.5347,1.5343,1.5321,1.5321,1.532,1.5319,0,1.5236,1.5227,1.5269,1.5271,1.5272,1.5303,1.5305,1.5329,1.5324,1.5356,1.5362,1.5356,1.5382,1.5372,1.5399,1.5394,1.5448,1.5437,1.5445,1.5444,1.5485,1.5482,1.5613,1.5631,1.5505,1.5506,1.5507,0,1.5291,1.5319,1.5325,1.534,1.5345,1.5369,1.5383,1.5368,1.5383,1.5396,1.5419,1.5443,1.5462,1.5505,1.5503,1.5525,1.5517,1.5561,1.552,1.5526,1.5521,1.5521,1.5525,1.557,1.5572,1.5573,1.5574,0,1.5391,1.5385,1.5406,1.5426,1.5443,1.5458,1.547,1.5484,1.547,1.5489,1.5516,1.553,1.5559,1.5585,1.5605,1.5609,1.5591,1.5587,1.5597,1.5605,1.561,1.5611,1.5471,1.5584,1.5583,1.5582,1.5582,1.5581,1.5465,1.549,1.5499,1.5524,1.5532,1.5545,1.5568,1.5567,1.5589,1.5612,1.5601,1.5634,1.5643,1.5668,1.5675,1.5701,1.5684,1.5699,1.5703,1.5708,1.5715,1.5604,1.5704,1.5704,1.5704,1.5703,1.5703,0,1.5567,1.5572,1.5594,1.5613,1.5633,1.5613,1.5627,1.5645,1.5674,1.5684,1.5704,1.5736,1.5761,1.5762,1.5786,1.5806,1.5799,1.5813,1.5813,1.5815,1.5727,1.5717,1.5819,1.5819,1.5819,1.5819,1.5819,1.5819,1.5622,1.5664,1.566,1.5707,1.5711,1.5743,1.5753,1.5765,1.5774,1.5812,1.5833,1.5833,1.584,1.5865,1.5888,1.5887,1.5898,1.5917,1.5914,1.5832,1.5821,1.581,1.58,1.5919,1.5919,1.6,1.6001,1.6002]},{"header":{"parameterUnit":"m.s-1","parameterCategory":1,"la1":30.2991,"la2":30.254,"lo1":-89.0895,"lo2":-89.0444,"dy":0.0017,"dx":0.0017,"nx":28,"ny":28,"refTime":"2023-09-17T03:00:00:Z","depth":0,"parameterNumber":3,"parameterNumberName":"V-component_of_WINDS"},"data":[0,0,0,0,0,0,0,0,0,0,0,0,0,0,0,0,0,0,0,0,0,0,0,0,0,0,0,0,0,0,0,0,0,0,0,0,0,0,0,0,0,0,0,0,0,0,0,0,0,0,0,0,0,0,0,0,0,0,-3.2735,-3.2733,0,-3.2466,-3.2463,-3.246,-3.2287,-3.2286,-3.2285,-3.2284,-3.199,-3.1983,-3.1976,0,0,0,0,0,0,0,0,0,0,0,0,0,-3.3081,-3.3076,-3.2736,-3.2732,-3.2729,-3.2467,-3.2463,-3.2459,-3.2287,-3.2286,-3.2284,-3.2283,-3.1992,-3.1984,-3.1976,0,0,0,0,0,0,0,0,0,0,0,0,0,-3.2883,-3.3074,-3.2736,-3.2612,-3.2598,-3.2468,-3.2463,-3.2458,-3.2287,-3.2286,-3.2284,-3.2283,-3.1995,-3.1985,-3.1974,-3.1941,0,0,-3.1943,-3.1938,0,0,0,0,0,0,0,0,-3.2895,-3.2871,-3.2633,-3.262,-3.2604,-3.2409,-3.2477,-3.2284,-3.2287,-3.2405,-3.2284,-3.2282,-3.2129,-3.2108,-3.206,-3.1927,-3.1915,-3.1942,-3.1936,-3.1931,-3.1928,0,0,0,0,0,0,0,-3.2909,-3.2881,-3.2628,-3.263,-3.2612,-3.2563,-3.2533,-3.2439,-3.2278,-3.2394,-3.2381,-3.2353,-3.2121,-3.207,-3.2052,-3.191,-3.1942,-3.1933,-3.1927,-3.1923,-3.173,-3.1731,0,0,0,0,0,0,-3.2945,-3.2894,-3.2637,-3.262,-3.2749,-3.2558,-3.2525,-3.2473,-3.2279,-3.2248,-3.2354,-3.2346,-3.2089,-3.2064,-3.2041,-3.1985,-3.1931,-3.1922,-3.1916,-3.1729,-3.173,-3.1731,0,0,0,0,0,0,-3.2953,-3.2923,-3.2648,-3.2753,-3.2715,-3.2554,-3.2497,-3.2468,-3.2418,-3.2249,-3.2217,-3.2334,-3.2086,-3.2055,-3.1967,-3.1973,-3.1917,-3.1908,-3.1728,-3.1729,-3.1731,-3.1877,0,0,0,0,0,0,-3.2963,-3.2928,-3.2918,-3.2755,-3.271,-3.2586,-3.2497,-3.2464,-3.2403,-3.2389,-3.2221,-3.2191,-3.2083,-3.1984,-3.1957,-3.1957,-3.1899,-3.1726,-3.1728,-3.173,-3.1871,-3.1884,-3.1894,0,0,0,0,0,-3.2976,-3.2967,-3.2919,-3.2888,-3.2696,-3.2586,-3.256,-3.2441,-3.2404,-3.239,-3.228,-3.2197,-3.1977,-3.1976,-3.1944,-3.1942,-3.1725,-3.1728,-3.173,-3.1866,-3.1881,-3.1894,0,0,0,0,0,0,-3.3129,-3.2943,-3.2887,-3.2826,-3.2724,-3.2558,-3.2536,-3.2461,-3.2362,-3.2353,-3.2203,-3.2166,-3.2092,-3.2007,-3.201,-3.1896,-3.1841,-3.1837,-3.1955,-3.1968,-3.1979,-3.2,-3.1891,0,0,0,0,0,-3.3157,-3.309,-3.2928,-3.2889,-3.2842,-3.2699,-3.2646,-3.2564,-3.2449,-3.2403,-3.2287,-3.2174,-3.2078,-3.2018,-3.1922,-3.1858,-3.1815,-3.184,-3.1852,-3.1863,-3.186,-3.1815,-3.1823,-3.1739,-3.1739,-3.1739,0,0,-3.3211,-3.3101,-3.3067,-3.2918,-3.2829,-3.2756,-3.2663,-3.2591,-3.2533,-3.2389,-3.23,-3.2211,-3.2074,-3.1998,-3.1958,-3.1925,-3.1874,-3.1866,-3.1876,-3.1867,-3.1818,-3.1826,-3.1833,-3.1741,-3.1741,-3.174,0,0,-3.3273,-3.3186,-3.3142,-3.3056,-3.2924,-3.2829,-3.2819,-3.2663,-3.2599,-3.2509,-3.2399,-3.2324,-3.2165,-3.2071,-3.2002,-3.2027,-3.1944,-3.1998,-3.2058,-3.2016,-3.2023,-3.2027,-3.2032,-3.2036,-3.1997,-3.1997,-3.1998,0,-3.3355,-3.3248,-3.3128,-3.3062,-3.2997,-3.287,-3.282,-3.274,-3.2581,-3.2536,-3.2503,-3.2299,-3.2197,-3.2095,-3.2101,-3.2051,-3.2029,-3.2016,-3.2033,-3.2036,-3.2039,-3.2041,-3.2044,-3.2005,-3.2004,-3.2003,-3.2002,0,-3.3354,-3.3281,-3.326,-3.3116,-3.3048,-3.2991,-3.2856,-3.28,-3.2723,-3.2629,-3.2534,-3.2409,-3.2283,-3.2252,-3.2174,-3.2137,-3.212,-3.2063,-3.2003,-3.2056,-3.2056,-3.2056,-3.2015,-3.2013,-3.201,-3.2009,0,0,-3.3504,-3.3295,-3.3289,-3.322,-3.3065,-3.3002,-3.2936,-3.2819,-3.2772,-3.2666,-3.2602,-3.247,-3.2415,-3.2337,-3.2246,-3.221,-3.2231,-3.2154,-3.2149,-3.217,-3.2176,-3.222,-3.2223,-3.2177,-3.2176,-3.2176,-3.2187,0,-3.354,-3.3423,-3.3312,-3.3231,-3.3158,-3.3035,-3.2976,-3.2871,-3.2781,-3.27,-3.2596,-3.2504,-3.2441,-3.2392,-3.2351,-3.2238,-3.223,-3.2236,-3.2109,-3.2106,-3.2146,-3.2223,-3.2269,-3.2285,-3.2186,-3.2186,-3.2186,0,-3.3567,-3.3472,-3.3386,-3.3235,-3.32,-3.3151,-3.3032,-3.296,-3.2834,-3.277,-3.2684,-3.2589,-3.2505,-3.2457,-3.2337,-3.2343,-3.2284,-3.222,-3.2218,-3.2199,-3.2148,-3.2203,-3.2288,-3.229,-3.2185,-3.2185,-3.2185,0,-3.3681,-3.353,-3.3459,-3.3404,-3.3228,-3.3195,-3.3118,-3.2993,-3.2928,-3.2822,-3.2777,-3.2661,-3.2596,-3.2505,-3.2378,-3.2355,-3.2269,-3.221,-3.2207,-3.2211,-3.2193,-3.2195,-3.2267,-3.2161,-3.2161,-3.2161,-3.2161,0,-3.3731,-3.3683,-3.3508,-3.3464,-3.3403,-3.3273,-3.3214,-3.3125,-3.3014,-3.2945,-3.2829,-3.2765,-3.2603,-3.2518,-3.2417,-3.233,-3.2302,-3.2243,-3.2216,-3.2252,-3.2259,-3.2209,-3.2203,-3.2161,-3.2161,-3.2161,-3.2161,0,-3.3848,-3.373,-3.3643,-3.3484,-3.3442,-3.3405,-3.3264,-3.3212,-3.3116,-3.303,-3.3001,-3.2847,-3.274,-3.2605,-3.2454,-3.2386,-3.2308,-3.2269,-3.2352,-3.2336,-3.2339,-3.234,-3.2379,-3.2375,-3.2277,-3.2278,-3.2279,0,-3.3887,-3.3847,-3.3685,-3.3634,-3.3562,-3.3481,-3.3415,-3.3282,-3.3217,-3.3071,-3.3035,-3.2921,-3.2823,-3.2656,-3.2525,-3.2408,-3.2362,-3.2384,-3.2343,-3.2379,-3.2358,-3.2361,-3.2354,-3.2394,-3.2396,-3.2397,-3.2398,0,-3.3967,-3.3911,-3.3825,-3.3717,-3.3643,-3.3551,-3.3452,-3.3414,-3.3259,-3.3191,-3.3084,-3.3008,-3.2855,-3.274,-3.2606,-3.2518,-3.243,-3.2413,-3.2405,-3.2439,-3.2488,-3.2458,-3.2377,-3.2412,-3.241,-3.2409,-3.2409,-3.2408,-3.4043,-3.4001,-3.388,-3.3786,-3.3699,-3.3609,-3.3553,-3.3451,-3.3361,-3.3231,-3.3156,-3.3049,-3.2919,-3.273,-3.2646,-3.2555,-3.2523,-3.2513,-3.2509,-3.2508,-3.2518,-3.2506,-3.253,-3.253,-3.2529,-3.2529,-3.2528,0,-3.4114,-3.4031,-3.3946,-3.3814,-3.3739,-3.367,-3.3556,-3.3495,-3.3406,-3.3295,-3.3202,-3.3075,-3.2963,-3.2824,-3.27,-3.2654,-3.261,-3.2626,-3.2626,-3.2606,-3.2556,-3.2574,-3.2663,-3.2663,-3.2663,-3.2663,-3.2663,-3.2663,-3.4143,-3.4067,-3.3996,-3.3873,-3.3786,-3.3687,-3.3627,-3.3541,-3.3452,-3.3319,-3.3227,-3.314,-3.3015,-3.2881,-3.2772,-3.2733,-3.2691,-3.2718,-3.2667,-3.2622,-3.261,-3.2599,-3.2614,-3.2711,-3.2711,-3.2723,-3.2724,-3.2724]}]]